Year,Month,Day,Hour,Minute,Value (Times are PST for temperature in C)
2011,05,14,00,00,9.60
2011,05,14,00,01,9.50
2011,05,14,00,02,9.50
2011,05,14,00,03,9.50
2011,05,14,00,04,9.40
2011,05,14,00,05,9.40
2011,05,14,00,06,9.40
2011,05,14,00,07,9.40
2011,05,14,00,08,9.40
2011,05,14,00,09,9.40
2011,05,14,00,10,9.40
2011,05,14,00,11,9.40
2011,05,14,00,12,9.40
2011,05,14,00,13,9.40
2011,05,14,00,14,9.40
2011,05,14,00,15,9.40
2011,05,14,00,16,9.30
2011,05,14,00,17,9.30
2011,05,14,00,18,9.30
2011,05,14,00,19,9.40
2011,05,14,00,20,9.40
2011,05,14,00,21,9.40
2011,05,14,00,22,9.40
2011,05,14,00,23,9.40
2011,05,14,00,24,9.40
2011,05,14,00,25,9.40
2011,05,14,00,26,9.40
2011,05,14,00,27,9.40
2011,05,14,00,28,9.50
2011,05,14,00,29,9.50
2011,05,14,00,30,9.60
2011,05,14,00,31,9.60
2011,05,14,00,32,9.60
2011,05,14,00,33,9.60
2011,05,14,00,34,9.60
2011,05,14,00,35,9.60
2011,05,14,00,36,9.60
2011,05,14,00,37,9.60
2011,05,14,00,38,9.60
2011,05,14,00,39,9.60
2011,05,14,00,40,9.60
2011,05,14,00,41,9.60
2011,05,14,00,42,9.60
2011,05,14,00,43,9.60
2011,05,14,00,44,9.50
2011,05,14,00,45,9.50
2011,05,14,00,46,9.50
2011,05,14,00,47,9.40
2011,05,14,00,48,9.40
2011,05,14,00,49,9.40
2011,05,14,00,50,9.40
2011,05,14,00,51,9.40
2011,05,14,00,52,9.40
2011,05,14,00,53,9.50
2011,05,14,00,54,9.50
2011,05,14,00,55,9.60
2011,05,14,00,56,9.70
2011,05,14,00,57,9.70
2011,05,14,00,58,9.70
2011,05,14,00,59,9.80
2011,05,14,01,00,9.80
2011,05,14,01,01,9.80
2011,05,14,01,02,9.80
2011,05,14,01,03,9.80
2011,05,14,01,04,9.80
2011,05,14,01,05,9.80
2011,05,14,01,06,9.70
2011,05,14,01,07,9.70
2011,05,14,01,08,9.70
2011,05,14,01,09,9.70
2011,05,14,01,10,9.70
2011,05,14,01,11,9.80
2011,05,14,01,12,9.80
2011,05,14,01,13,9.80
2011,05,14,01,14,9.80
2011,05,14,01,15,9.90
2011,05,14,01,16,9.90
2011,05,14,01,17,10.00
2011,05,14,01,18,10.00
2011,05,14,01,19,10.00
2011,05,14,01,20,10.10
2011,05,14,01,21,10.10
2011,05,14,01,22,10.10
2011,05,14,01,23,10.10
2011,05,14,01,24,10.20
2011,05,14,01,25,10.20
2011,05,14,01,26,10.20
2011,05,14,01,27,10.20
2011,05,14,01,28,10.30
2011,05,14,01,29,10.30
2011,05,14,01,30,10.30
2011,05,14,01,31,10.30
2011,05,14,01,32,10.30
2011,05,14,01,33,10.30
2011,05,14,01,34,10.30
2011,05,14,01,35,10.30
2011,05,14,01,36,10.30
2011,05,14,01,37,10.30
2011,05,14,01,38,10.30
2011,05,14,01,39,10.20
2011,05,14,01,40,10.20
2011,05,14,01,41,10.20
2011,05,14,01,42,10.20
2011,05,14,01,43,10.10
2011,05,14,01,44,10.10
2011,05,14,01,45,10.10
2011,05,14,01,46,10.10
2011,05,14,01,47,10.10
2011,05,14,01,48,10.00
2011,05,14,01,49,10.00
2011,05,14,01,50,9.90
2011,05,14,01,51,9.90
2011,05,14,01,52,9.90
2011,05,14,01,53,9.90
2011,05,14,01,54,9.90
2011,05,14,01,55,9.90
2011,05,14,01,56,9.80
2011,05,14,01,57,9.80
2011,05,14,01,58,9.80
2011,05,14,01,59,9.80
2011,05,14,02,00,9.80
2011,05,14,02,01,9.80
2011,05,14,02,02,9.80
2011,05,14,02,03,9.80
2011,05,14,02,04,9.80
2011,05,14,02,05,9.70
2011,05,14,02,06,9.70
2011,05,14,02,07,9.70
2011,05,14,02,08,9.70
2011,05,14,02,09,9.70
2011,05,14,02,10,9.80
2011,05,14,02,11,9.80
2011,05,14,02,12,9.90
2011,05,14,02,13,9.90
2011,05,14,02,14,9.90
2011,05,14,02,15,9.90
2011,05,14,02,16,10.00
2011,05,14,02,17,10.00
2011,05,14,02,18,10.00
2011,05,14,02,19,9.90
2011,05,14,02,20,9.90
2011,05,14,02,21,9.90
2011,05,14,02,22,9.90
2011,05,14,02,23,9.80
2011,05,14,02,24,9.80
2011,05,14,02,25,9.70
2011,05,14,02,26,9.70
2011,05,14,02,27,9.70
2011,05,14,02,28,9.60
2011,05,14,02,29,9.60
2011,05,14,02,30,9.60
2011,05,14,02,31,9.60
2011,05,14,02,32,9.60
2011,05,14,02,33,9.50
2011,05,14,02,34,9.50
2011,05,14,02,35,9.50
2011,05,14,02,36,9.40
2011,05,14,02,37,9.40
2011,05,14,02,38,9.30
2011,05,14,02,39,9.30
2011,05,14,02,40,9.30
2011,05,14,02,41,9.30
2011,05,14,02,42,9.30
2011,05,14,02,43,9.30
2011,05,14,02,44,9.30
2011,05,14,02,45,9.30
2011,05,14,02,46,9.30
2011,05,14,02,47,9.30
2011,05,14,02,48,9.30
2011,05,14,02,49,9.30
2011,05,14,02,50,9.30
2011,05,14,02,51,9.30
2011,05,14,02,52,9.30
2011,05,14,02,53,9.30
2011,05,14,02,54,9.30
2011,05,14,02,55,9.40
2011,05,14,02,56,9.40
2011,05,14,02,57,9.40
2011,05,14,02,58,9.50
2011,05,14,02,59,9.50
2011,05,14,03,00,9.60
2011,05,14,03,01,9.60
2011,05,14,03,02,9.60
2011,05,14,03,03,9.70
2011,05,14,03,04,9.70
2011,05,14,03,05,9.70
2011,05,14,03,06,9.60
2011,05,14,03,07,9.60
2011,05,14,03,08,9.60
2011,05,14,03,09,9.60
2011,05,14,03,10,9.60
2011,05,14,03,11,9.60
2011,05,14,03,12,9.60
2011,05,14,03,13,9.60
2011,05,14,03,14,9.60
2011,05,14,03,15,9.60
2011,05,14,03,16,9.70
2011,05,14,03,17,9.70
2011,05,14,03,18,9.70
2011,05,14,03,19,9.70
2011,05,14,03,20,9.70
2011,05,14,03,21,9.60
2011,05,14,03,22,9.60
2011,05,14,03,23,9.60
2011,05,14,03,24,9.60
2011,05,14,03,25,9.60
2011,05,14,03,26,9.50
2011,05,14,03,27,9.50
2011,05,14,03,28,9.50
2011,05,14,03,29,9.40
2011,05,14,03,30,9.40
2011,05,14,03,31,9.30
2011,05,14,03,32,9.30
2011,05,14,03,33,9.20
2011,05,14,03,34,9.20
2011,05,14,03,35,9.20
2011,05,14,03,36,9.20
2011,05,14,03,37,9.10
2011,05,14,03,38,9.10
2011,05,14,03,39,9.10
2011,05,14,03,40,9.10
2011,05,14,03,41,9.10
2011,05,14,03,42,9.10
2011,05,14,03,43,9.10
2011,05,14,03,44,9.00
2011,05,14,03,45,9.00
2011,05,14,03,46,9.00
2011,05,14,03,47,8.90
2011,05,14,03,48,8.90
2011,05,14,03,49,8.90
2011,05,14,03,50,8.90
2011,05,14,03,51,8.90
2011,05,14,03,52,8.90
2011,05,14,03,53,8.90
2011,05,14,03,54,8.90
2011,05,14,03,55,8.90
2011,05,14,03,56,8.90
2011,05,14,03,57,8.90
2011,05,14,03,58,8.90
2011,05,14,03,59,8.90
2011,05,14,04,00,8.90
2011,05,14,04,01,8.90
2011,05,14,04,02,8.90
2011,05,14,04,03,8.90
2011,05,14,04,04,8.90
2011,05,14,04,05,8.90
2011,05,14,04,06,8.90
2011,05,14,04,07,8.90
2011,05,14,04,08,8.90
2011,05,14,04,09,9.00
2011,05,14,04,10,9.00
2011,05,14,04,11,9.00
2011,05,14,04,12,9.00
2011,05,14,04,13,9.00
2011,05,14,04,14,9.00
2011,05,14,04,15,9.00
2011,05,14,04,16,9.00
2011,05,14,04,17,9.00
2011,05,14,04,18,9.00
2011,05,14,04,19,9.00
2011,05,14,04,20,9.00
2011,05,14,04,21,9.00
2011,05,14,04,22,9.00
2011,05,14,04,23,9.00
2011,05,14,04,24,9.00
2011,05,14,04,25,9.00
2011,05,14,04,26,9.00
2011,05,14,04,27,9.00
2011,05,14,04,28,9.00
2011,05,14,04,29,9.00
2011,05,14,04,30,9.00
2011,05,14,04,31,8.90
2011,05,14,04,32,8.90
2011,05,14,04,33,9.00
2011,05,14,04,34,9.00
2011,05,14,04,35,9.00
2011,05,14,04,36,9.00
2011,05,14,04,37,9.00
2011,05,14,04,38,9.10
2011,05,14,04,39,9.10
2011,05,14,04,40,9.10
2011,05,14,04,41,9.10
2011,05,14,04,42,9.10
2011,05,14,04,43,9.10
2011,05,14,04,44,9.20
2011,05,14,04,45,9.20
2011,05,14,04,46,9.20
2011,05,14,04,47,9.20
2011,05,14,04,48,9.30
2011,05,14,04,49,9.30
2011,05,14,04,50,9.30
2011,05,14,04,51,9.30
2011,05,14,04,52,9.30
2011,05,14,04,53,9.30
2011,05,14,04,54,9.30
2011,05,14,04,55,9.40
2011,05,14,04,56,9.40
2011,05,14,04,57,9.40
2011,05,14,04,58,9.40
2011,05,14,04,59,9.40
2011,05,14,05,00,9.40
2011,05,14,05,01,9.40
2011,05,14,05,02,9.50
2011,05,14,05,03,9.50
2011,05,14,05,04,9.50
2011,05,14,05,05,9.50
2011,05,14,05,06,9.50
2011,05,14,05,07,9.50
2011,05,14,05,08,9.40
2011,05,14,05,09,9.40
2011,05,14,05,10,9.40
2011,05,14,05,11,9.40
2011,05,14,05,12,9.40
2011,05,14,05,13,9.40
2011,05,14,05,14,9.30
2011,05,14,05,15,9.30
2011,05,14,05,16,9.30
2011,05,14,05,17,9.30
2011,05,14,05,18,9.30
2011,05,14,05,19,9.30
2011,05,14,05,20,9.20
2011,05,14,05,21,9.20
2011,05,14,05,22,9.20
2011,05,14,05,23,9.20
2011,05,14,05,24,9.10
2011,05,14,05,25,9.10
2011,05,14,05,26,9.10
2011,05,14,05,27,9.10
2011,05,14,05,28,9.10
2011,05,14,05,29,9.00
2011,05,14,05,30,9.00
2011,05,14,05,31,9.00
2011,05,14,05,32,8.90
2011,05,14,05,33,8.90
2011,05,14,05,34,8.90
2011,05,14,05,35,8.90
2011,05,14,05,36,8.90
2011,05,14,05,37,8.90
2011,05,14,05,38,8.90
2011,05,14,05,39,9.00
2011,05,14,05,40,9.00
2011,05,14,05,41,9.00
2011,05,14,05,42,9.00
2011,05,14,05,43,9.00
2011,05,14,05,44,9.10
2011,05,14,05,45,9.10
2011,05,14,05,46,9.10
2011,05,14,05,47,9.10
2011,05,14,05,48,9.20
2011,05,14,05,49,9.20
2011,05,14,05,50,9.20
2011,05,14,05,51,9.20
2011,05,14,05,52,9.20
2011,05,14,05,53,9.20
2011,05,14,05,54,9.20
2011,05,14,05,55,9.30
2011,05,14,05,56,9.30
2011,05,14,05,57,9.30
2011,05,14,05,58,9.30
2011,05,14,05,59,9.30
2011,05,14,06,00,9.30
2011,05,14,06,01,9.20
2011,05,14,06,02,9.20
2011,05,14,06,03,9.20
2011,05,14,06,04,9.10
2011,05,14,06,05,9.10
2011,05,14,06,06,9.00
2011,05,14,06,07,9.00
2011,05,14,06,08,8.90
2011,05,14,06,09,8.90
2011,05,14,06,10,9.00
2011,05,14,06,11,9.00
2011,05,14,06,12,9.00
2011,05,14,06,13,8.90
2011,05,14,06,14,8.90
2011,05,14,06,15,8.90
2011,05,14,06,16,8.90
2011,05,14,06,17,8.90
2011,05,14,06,18,8.80
2011,05,14,06,19,8.80
2011,05,14,06,20,8.80
2011,05,14,06,21,8.80
2011,05,14,06,22,8.80
2011,05,14,06,23,8.70
2011,05,14,06,24,8.70
2011,05,14,06,25,8.70
2011,05,14,06,26,8.70
2011,05,14,06,27,8.60
2011,05,14,06,28,8.60
2011,05,14,06,29,8.60
2011,05,14,06,30,8.60
2011,05,14,06,31,8.50
2011,05,14,06,32,8.50
2011,05,14,06,33,8.40
2011,05,14,06,34,8.40
2011,05,14,06,35,8.30
2011,05,14,06,36,8.30
2011,05,14,06,37,8.30
2011,05,14,06,38,8.30
2011,05,14,06,39,8.30
2011,05,14,06,40,8.30
2011,05,14,06,41,8.30
2011,05,14,06,42,8.30
2011,05,14,06,43,8.40
2011,05,14,06,44,8.40
2011,05,14,06,45,8.40
2011,05,14,06,46,8.50
2011,05,14,06,47,8.50
2011,05,14,06,48,8.50
2011,05,14,06,49,8.60
2011,05,14,06,50,8.60
2011,05,14,06,51,8.70
2011,05,14,06,52,8.70
2011,05,14,06,53,8.60
2011,05,14,06,54,8.60
2011,05,14,06,55,8.60
2011,05,14,06,56,8.60
2011,05,14,06,57,8.60
2011,05,14,06,58,8.50
2011,05,14,06,59,8.50
2011,05,14,07,00,8.50
2011,05,14,07,01,8.50
2011,05,14,07,02,8.40
2011,05,14,07,03,8.40
2011,05,14,07,04,8.40
2011,05,14,07,05,8.40
2011,05,14,07,06,8.40
2011,05,14,07,07,8.40
2011,05,14,07,08,8.50
2011,05,14,07,09,8.50
2011,05,14,07,10,8.60
2011,05,14,07,11,8.60
2011,05,14,07,12,8.60
2011,05,14,07,13,8.60
2011,05,14,07,14,8.70
2011,05,14,07,15,8.70
2011,05,14,07,16,8.70
2011,05,14,07,17,8.70
2011,05,14,07,18,8.80
2011,05,14,07,19,8.80
2011,05,14,07,20,8.80
2011,05,14,07,21,8.80
2011,05,14,07,22,8.80
2011,05,14,07,23,8.80
2011,05,14,07,24,8.70
2011,05,14,07,25,8.70
2011,05,14,07,26,8.70
2011,05,14,07,27,8.70
2011,05,14,07,28,8.60
2011,05,14,07,29,8.60
2011,05,14,07,30,8.60
2011,05,14,07,31,8.60
2011,05,14,07,32,8.60
2011,05,14,07,33,8.60
2011,05,14,07,34,8.60
2011,05,14,07,35,8.60
2011,05,14,07,36,8.60
2011,05,14,07,37,8.60
2011,05,14,07,38,8.60
2011,05,14,07,39,8.60
2011,05,14,07,40,8.70
2011,05,14,07,41,8.70
2011,05,14,07,42,8.70
2011,05,14,07,43,8.80
2011,05,14,07,44,8.80
2011,05,14,07,45,8.80
2011,05,14,07,46,8.80
2011,05,14,07,47,8.80
2011,05,14,07,48,8.90
2011,05,14,07,49,8.90
2011,05,14,07,50,8.90
2011,05,14,07,51,8.90
2011,05,14,07,52,8.90
2011,05,14,07,53,8.90
2011,05,14,07,54,8.90
2011,05,14,07,55,8.90
2011,05,14,07,56,8.90
2011,05,14,07,57,8.90
2011,05,14,07,58,8.90
2011,05,14,07,59,9.00
2011,05,14,08,00,9.00
2011,05,14,08,01,9.10
2011,05,14,08,02,9.10
2011,05,14,08,03,9.10
2011,05,14,08,04,9.20
2011,05,14,08,05,9.20
2011,05,14,08,06,9.20
2011,05,14,08,07,9.20
2011,05,14,08,08,9.20
2011,05,14,08,09,9.20
2011,05,14,08,10,9.20
2011,05,14,08,11,9.20
2011,05,14,08,12,9.20
2011,05,14,08,13,9.30
2011,05,14,08,14,9.30
2011,05,14,08,15,9.30
2011,05,14,08,16,9.30
2011,05,14,08,17,9.30
2011,05,14,08,18,9.30
2011,05,14,08,19,9.40
2011,05,14,08,20,9.40
2011,05,14,08,21,9.40
2011,05,14,08,22,9.40
2011,05,14,08,23,9.40
2011,05,14,08,24,9.40
2011,05,14,08,25,9.40
2011,05,14,08,26,9.40
2011,05,14,08,27,9.40
2011,05,14,08,28,9.40
2011,05,14,08,29,9.40
2011,05,14,08,30,9.40
2011,05,14,08,31,9.40
2011,05,14,08,32,9.40
2011,05,14,08,33,9.40
2011,05,14,08,34,9.40
2011,05,14,08,35,9.40
2011,05,14,08,36,9.40
2011,05,14,08,37,9.40
2011,05,14,08,38,9.40
2011,05,14,08,39,9.50
2011,05,14,08,40,9.50
2011,05,14,08,41,9.50
2011,05,14,08,42,9.60
2011,05,14,08,43,9.60
2011,05,14,08,44,9.60
2011,05,14,08,45,9.60
2011,05,14,08,46,9.60
2011,05,14,08,47,9.70
2011,05,14,08,48,9.70
2011,05,14,08,49,9.70
2011,05,14,08,50,9.70
2011,05,14,08,51,9.70
2011,05,14,08,52,9.70
2011,05,14,08,53,9.70
2011,05,14,08,54,9.70
2011,05,14,08,55,9.80
2011,05,14,08,56,9.80
2011,05,14,08,57,9.80
2011,05,14,08,58,9.80
2011,05,14,08,59,9.80
2011,05,14,09,00,9.80
2011,05,14,09,01,9.80
2011,05,14,09,02,9.70
2011,05,14,09,03,9.70
2011,05,14,09,04,9.70
2011,05,14,09,05,9.70
2011,05,14,09,06,9.70
2011,05,14,09,07,9.70
2011,05,14,09,08,9.70
2011,05,14,09,09,9.70
2011,05,14,09,10,9.70
2011,05,14,09,11,9.70
2011,05,14,09,12,9.70
2011,05,14,09,13,9.70
2011,05,14,09,14,9.80
2011,05,14,09,15,9.80
2011,05,14,09,16,9.80
2011,05,14,09,17,9.80
2011,05,14,09,18,9.80
2011,05,14,09,19,9.80
2011,05,14,09,20,9.80
2011,05,14,09,21,9.80
2011,05,14,09,22,9.80
2011,05,14,09,23,9.80
2011,05,14,09,24,9.80
2011,05,14,09,25,9.80
2011,05,14,09,26,9.90
2011,05,14,09,27,9.90
2011,05,14,09,28,9.90
2011,05,14,09,29,10.00
2011,05,14,09,30,10.00
2011,05,14,09,31,10.00
2011,05,14,09,32,10.10
2011,05,14,09,33,10.10
2011,05,14,09,34,10.10
2011,05,14,09,35,10.10
2011,05,14,09,36,10.10
2011,05,14,09,37,10.20
2011,05,14,09,38,10.20
2011,05,14,09,39,10.20
2011,05,14,09,40,10.20
2011,05,14,09,41,10.30
2011,05,14,09,42,10.30
2011,05,14,09,43,10.30
2011,05,14,09,44,10.30
2011,05,14,09,45,10.30
2011,05,14,09,46,10.30
2011,05,14,09,47,10.30
2011,05,14,09,48,10.30
2011,05,14,09,49,10.30
2011,05,14,09,50,10.30
2011,05,14,09,51,10.30
2011,05,14,09,52,10.30
2011,05,14,09,53,10.30
2011,05,14,09,54,10.30
2011,05,14,09,55,10.30
2011,05,14,09,56,10.30
2011,05,14,09,57,10.30
2011,05,14,09,58,10.30
2011,05,14,09,59,10.30
2011,05,14,10,00,10.30
2011,05,14,10,01,10.30
2011,05,14,10,02,10.20
2011,05,14,10,03,10.20
2011,05,14,10,04,10.20
2011,05,14,10,05,10.20
2011,05,14,10,06,10.20
2011,05,14,10,07,10.20
2011,05,14,10,08,10.20
2011,05,14,10,09,10.30
2011,05,14,10,10,10.30
2011,05,14,10,11,10.30
2011,05,14,10,12,10.30
2011,05,14,10,13,10.40
2011,05,14,10,14,10.40
2011,05,14,10,15,10.40
2011,05,14,10,16,10.50
2011,05,14,10,17,10.50
2011,05,14,10,18,10.50
2011,05,14,10,19,10.60
2011,05,14,10,20,10.60
2011,05,14,10,21,10.70
2011,05,14,10,22,10.70
2011,05,14,10,23,10.70
2011,05,14,10,24,10.70
2011,05,14,10,25,10.80
2011,05,14,10,26,10.80
2011,05,14,10,27,10.80
2011,05,14,10,28,10.80
2011,05,14,10,29,10.80
2011,05,14,10,30,10.80
2011,05,14,10,31,10.90
2011,05,14,10,32,10.90
2011,05,14,10,33,10.90
2011,05,14,10,34,11.00
2011,05,14,10,35,11.00
2011,05,14,10,36,11.00
2011,05,14,10,37,11.10
2011,05,14,10,38,11.10
2011,05,14,10,39,11.10
2011,05,14,10,40,11.10
2011,05,14,10,41,11.20
2011,05,14,10,42,11.20
2011,05,14,10,43,11.20
2011,05,14,10,44,11.30
2011,05,14,10,45,11.30
2011,05,14,10,46,11.30
2011,05,14,10,47,11.40
2011,05,14,10,48,11.40
2011,05,14,10,49,11.40
2011,05,14,10,50,11.40
2011,05,14,10,51,11.50
2011,05,14,10,52,11.50
2011,05,14,10,53,11.60
2011,05,14,10,54,11.60
2011,05,14,10,55,11.60
2011,05,14,10,56,11.70
2011,05,14,10,57,11.70
2011,05,14,10,58,11.70
2011,05,14,10,59,11.80
2011,05,14,11,00,11.80
2011,05,14,11,01,11.90
2011,05,14,11,02,11.90
2011,05,14,11,03,11.90
2011,05,14,11,04,12.00
2011,05,14,11,05,12.00
2011,05,14,11,06,12.10
2011,05,14,11,07,12.10
2011,05,14,11,08,12.10
2011,05,14,11,09,12.10
2011,05,14,11,10,12.10
2011,05,14,11,11,12.10
2011,05,14,11,12,12.20
2011,05,14,11,13,12.20
2011,05,14,11,14,12.20
2011,05,14,11,15,12.20
2011,05,14,11,16,12.30
2011,05,14,11,17,12.30
2011,05,14,11,18,12.30
2011,05,14,11,19,12.30
2011,05,14,11,20,12.40
2011,05,14,11,21,12.40
2011,05,14,11,22,12.40
2011,05,14,11,23,12.40
2011,05,14,11,24,12.50
2011,05,14,11,25,12.50
2011,05,14,11,26,12.50
2011,05,14,11,27,12.60
2011,05,14,11,28,12.60
2011,05,14,11,29,12.60
2011,05,14,11,30,12.60
2011,05,14,11,31,12.70
2011,05,14,11,32,12.70
2011,05,14,11,33,12.70
2011,05,14,11,34,12.80
2011,05,14,11,35,12.80
2011,05,14,11,36,12.90
2011,05,14,11,37,12.90
2011,05,14,11,38,13.00
2011,05,14,11,39,13.00
2011,05,14,11,40,13.10
2011,05,14,11,41,13.20
2011,05,14,11,42,13.20
2011,05,14,11,43,13.30
2011,05,14,11,44,13.30
2011,05,14,11,45,13.40
2011,05,14,11,46,13.40
2011,05,14,11,47,13.40
2011,05,14,11,48,13.40
2011,05,14,11,49,13.50
2011,05,14,11,50,13.60
2011,05,14,11,51,13.60
2011,05,14,11,52,13.70
2011,05,14,11,53,13.70
2011,05,14,11,54,13.80
2011,05,14,11,55,13.80
2011,05,14,11,56,13.90
2011,05,14,11,57,13.90
2011,05,14,11,58,13.90
2011,05,14,11,59,14.00
2011,05,14,12,00,14.00
2011,05,14,12,01,14.10
2011,05,14,12,02,14.10
2011,05,14,12,03,14.20
2011,05,14,12,04,14.20
2011,05,14,12,05,14.20
2011,05,14,12,06,14.20
2011,05,14,12,07,14.20
2011,05,14,12,08,14.30
2011,05,14,12,09,14.30
2011,05,14,12,10,14.30
2011,05,14,12,11,14.40
2011,05,14,12,12,14.40
2011,05,14,12,13,14.40
2011,05,14,12,14,14.50
2011,05,14,12,15,14.50
2011,05,14,12,16,14.50
2011,05,14,12,17,14.60
2011,05,14,12,18,14.60
2011,05,14,12,19,14.60
2011,05,14,12,20,14.60
2011,05,14,12,21,14.60
2011,05,14,12,22,14.60
2011,05,14,12,23,14.60
2011,05,14,12,24,14.60
2011,05,14,12,25,14.60
2011,05,14,12,26,14.60
2011,05,14,12,27,14.60
2011,05,14,12,28,14.60
2011,05,14,12,29,14.60
2011,05,14,12,30,14.60
2011,05,14,12,31,14.60
2011,05,14,12,32,14.60
2011,05,14,12,33,14.70
2011,05,14,12,34,14.70
2011,05,14,12,35,14.70
2011,05,14,12,36,14.70
2011,05,14,12,37,14.70
2011,05,14,12,38,14.70
2011,05,14,12,39,14.70
2011,05,14,12,40,14.80
2011,05,14,12,41,14.80
2011,05,14,12,42,14.80
2011,05,14,12,43,14.80
2011,05,14,12,44,14.80
2011,05,14,12,45,14.80
2011,05,14,12,46,14.80
2011,05,14,12,47,14.80
2011,05,14,12,48,14.80
2011,05,14,12,49,14.80
2011,05,14,12,50,14.80
2011,05,14,12,51,14.80
2011,05,14,12,52,14.80
2011,05,14,12,53,14.80
2011,05,14,12,54,14.80
2011,05,14,12,55,14.90
2011,05,14,12,56,14.90
2011,05,14,12,57,15.00
2011,05,14,12,58,15.00
2011,05,14,12,59,15.10
2011,05,14,13,00,15.10
2011,05,14,13,01,15.10
2011,05,14,13,02,15.20
2011,05,14,13,03,15.30
2011,05,14,13,04,15.30
2011,05,14,13,05,15.40
2011,05,14,13,06,15.40
2011,05,14,13,07,15.50
2011,05,14,13,08,15.60
2011,05,14,13,09,15.60
2011,05,14,13,10,15.70
2011,05,14,13,11,15.70
2011,05,14,13,12,15.70
2011,05,14,13,13,15.70
2011,05,14,13,14,15.70
2011,05,14,13,15,15.60
2011,05,14,13,16,15.60
2011,05,14,13,17,15.60
2011,05,14,13,18,15.60
2011,05,14,13,19,15.60
2011,05,14,13,20,15.60
2011,05,14,13,21,15.60
2011,05,14,13,22,15.60
2011,05,14,13,23,15.60
2011,05,14,13,24,15.60
2011,05,14,13,25,15.60
2011,05,14,13,26,15.60
2011,05,14,13,27,15.60
2011,05,14,13,28,15.60
2011,05,14,13,29,15.60
2011,05,14,13,30,15.50
2011,05,14,13,31,15.60
2011,05,14,13,32,15.60
2011,05,14,13,33,15.60
2011,05,14,13,34,15.60
2011,05,14,13,35,15.60
2011,05,14,13,36,15.60
2011,05,14,13,37,15.70
2011,05,14,13,38,15.70
2011,05,14,13,39,15.80
2011,05,14,13,40,15.80
2011,05,14,13,41,15.90
2011,05,14,13,42,15.90
2011,05,14,13,43,16.00
2011,05,14,13,44,16.10
2011,05,14,13,45,16.10
2011,05,14,13,46,16.10
2011,05,14,13,47,16.10
2011,05,14,13,48,16.10
2011,05,14,13,49,16.10
2011,05,14,13,50,16.10
2011,05,14,13,51,16.10
2011,05,14,13,52,16.10
2011,05,14,13,53,16.10
2011,05,14,13,54,16.20
2011,05,14,13,55,16.20
2011,05,14,13,56,16.30
2011,05,14,13,57,16.30
2011,05,14,13,58,16.40
2011,05,14,13,59,16.40
2011,05,14,14,00,16.50
2011,05,14,14,01,16.50
2011,05,14,14,02,16.50
2011,05,14,14,03,16.60
2011,05,14,14,04,16.60
2011,05,14,14,05,16.60
2011,05,14,14,06,16.60
2011,05,14,14,07,16.60
2011,05,14,14,08,16.60
2011,05,14,14,09,16.50
2011,05,14,14,10,16.50
2011,05,14,14,11,16.50
2011,05,14,14,12,16.50
2011,05,14,14,13,16.50
2011,05,14,14,14,16.50
2011,05,14,14,15,16.50
2011,05,14,14,16,16.50
2011,05,14,14,17,16.60
2011,05,14,14,18,16.60
2011,05,14,14,19,16.70
2011,05,14,14,20,16.70
2011,05,14,14,21,16.70
2011,05,14,14,22,16.70
2011,05,14,14,23,16.60
2011,05,14,14,24,16.50
2011,05,14,14,25,16.40
2011,05,14,14,26,16.30
2011,05,14,14,27,16.30
2011,05,14,14,28,16.20
2011,05,14,14,29,16.10
2011,05,14,14,30,16.00
2011,05,14,14,31,15.90
2011,05,14,14,32,15.80
2011,05,14,14,33,15.80
2011,05,14,14,34,15.70
2011,05,14,14,35,15.70
2011,05,14,14,36,15.70
2011,05,14,14,37,15.60
2011,05,14,14,38,15.60
2011,05,14,14,39,15.40
2011,05,14,14,40,15.30
2011,05,14,14,41,15.20
2011,05,14,14,42,15.20
2011,05,14,14,43,15.20
2011,05,14,14,44,15.20
2011,05,14,14,45,15.20
2011,05,14,14,46,15.20
2011,05,14,14,47,15.20
2011,05,14,14,48,15.20
2011,05,14,14,49,15.20
2011,05,14,14,50,15.00
2011,05,14,14,51,14.90
2011,05,14,14,52,14.80
2011,05,14,14,53,14.80
2011,05,14,14,54,14.70
2011,05,14,14,55,14.70
2011,05,14,14,56,14.60
2011,05,14,14,57,14.60
2011,05,14,14,58,14.60
2011,05,14,14,59,14.50
2011,05,14,15,00,14.60
2011,05,14,15,01,14.60
2011,05,14,15,02,14.60
2011,05,14,15,03,14.70
2011,05,14,15,04,14.80
2011,05,14,15,05,14.90
2011,05,14,15,06,15.00
2011,05,14,15,07,15.10
2011,05,14,15,08,15.20
2011,05,14,15,09,15.20
2011,05,14,15,10,15.20
2011,05,14,15,11,15.20
2011,05,14,15,12,15.20
2011,05,14,15,13,15.20
2011,05,14,15,14,15.20
2011,05,14,15,15,15.20
2011,05,14,15,16,15.30
2011,05,14,15,17,15.30
2011,05,14,15,18,15.30
2011,05,14,15,19,15.30
2011,05,14,15,20,15.30
2011,05,14,15,21,15.20
2011,05,14,15,22,15.10
2011,05,14,15,23,15.10
2011,05,14,15,24,15.10
2011,05,14,15,25,15.10
2011,05,14,15,26,15.10
2011,05,14,15,27,15.10
2011,05,14,15,28,15.10
2011,05,14,15,29,15.10
2011,05,14,15,30,15.10
2011,05,14,15,31,15.00
2011,05,14,15,32,14.90
2011,05,14,15,33,14.80
2011,05,14,15,34,14.70
2011,05,14,15,35,14.70
2011,05,14,15,36,14.70
2011,05,14,15,37,14.70
2011,05,14,15,38,14.60
2011,05,14,15,39,14.60
2011,05,14,15,40,14.60
2011,05,14,15,41,14.60
2011,05,14,15,42,14.70
2011,05,14,15,43,14.70
2011,05,14,15,44,14.70
2011,05,14,15,45,14.80
2011,05,14,15,46,14.80
2011,05,14,15,47,14.80
2011,05,14,15,48,14.80
2011,05,14,15,49,14.80
2011,05,14,15,50,14.80
2011,05,14,15,51,14.90
2011,05,14,15,52,14.90
2011,05,14,15,53,14.90
2011,05,14,15,54,14.80
2011,05,14,15,55,14.80
2011,05,14,15,56,14.80
2011,05,14,15,57,14.70
2011,05,14,15,58,14.70
2011,05,14,15,59,14.80
2011,05,14,16,00,14.80
2011,05,14,16,01,14.90
2011,05,14,16,02,14.90
2011,05,14,16,03,15.00
2011,05,14,16,04,15.00
2011,05,14,16,05,14.90
2011,05,14,16,06,14.90
2011,05,14,16,07,14.90
2011,05,14,16,08,14.90
2011,05,14,16,09,14.90
2011,05,14,16,10,14.90
2011,05,14,16,11,14.90
2011,05,14,16,12,14.90
2011,05,14,16,13,14.90
2011,05,14,16,14,14.90
2011,05,14,16,15,14.90
2011,05,14,16,16,14.90
2011,05,14,16,17,14.80
2011,05,14,16,18,14.80
2011,05,14,16,19,14.80
2011,05,14,16,20,14.70
2011,05,14,16,21,14.70
2011,05,14,16,22,14.70
2011,05,14,16,23,14.60
2011,05,14,16,24,14.60
2011,05,14,16,25,14.60
2011,05,14,16,26,14.60
2011,05,14,16,27,14.60
2011,05,14,16,28,14.60
2011,05,14,16,29,14.60
2011,05,14,16,30,14.70
2011,05,14,16,31,14.70
2011,05,14,16,32,14.70
2011,05,14,16,33,14.80
2011,05,14,16,34,14.70
2011,05,14,16,35,14.70
2011,05,14,16,36,14.80
2011,05,14,16,37,14.80
2011,05,14,16,38,14.80
2011,05,14,16,39,14.90
2011,05,14,16,40,14.90
2011,05,14,16,41,14.90
2011,05,14,16,42,14.90
2011,05,14,16,43,14.90
2011,05,14,16,44,15.00
2011,05,14,16,45,15.00
2011,05,14,16,46,15.00
2011,05,14,16,47,15.00
2011,05,14,16,48,15.00
2011,05,14,16,49,15.00
2011,05,14,16,50,15.00
2011,05,14,16,51,15.00
2011,05,14,16,52,15.00
2011,05,14,16,53,15.00
2011,05,14,16,54,15.00
2011,05,14,16,55,15.00
2011,05,14,16,56,15.00
2011,05,14,16,57,14.90
2011,05,14,16,58,14.80
2011,05,14,16,59,14.80
2011,05,14,17,00,14.80
2011,05,14,17,01,14.70
2011,05,14,17,02,14.70
2011,05,14,17,03,14.70
2011,05,14,17,04,14.70
2011,05,14,17,05,14.70
2011,05,14,17,06,14.70
2011,05,14,17,07,14.70
2011,05,14,17,08,14.70
2011,05,14,17,09,14.70
2011,05,14,17,10,14.70
2011,05,14,17,11,14.70
2011,05,14,17,12,14.60
2011,05,14,17,13,14.70
2011,05,14,17,14,14.70
2011,05,14,17,15,14.70
2011,05,14,17,16,14.80
2011,05,14,17,17,14.90
2011,05,14,17,18,14.90
2011,05,14,17,19,15.00
2011,05,14,17,20,15.10
2011,05,14,17,21,15.10
2011,05,14,17,22,15.10
2011,05,14,17,23,15.10
2011,05,14,17,24,15.10
2011,05,14,17,25,15.10
2011,05,14,17,26,15.20
2011,05,14,17,27,15.20
2011,05,14,17,28,15.20
2011,05,14,17,29,15.20
2011,05,14,17,30,15.20
2011,05,14,17,31,15.20
2011,05,14,17,32,15.20
2011,05,14,17,33,15.20
2011,05,14,17,34,15.20
2011,05,14,17,35,15.30
2011,05,14,17,36,15.30
2011,05,14,17,37,15.30
2011,05,14,17,38,15.30
2011,05,14,17,39,15.30
2011,05,14,17,40,15.30
2011,05,14,17,41,15.40
2011,05,14,17,42,15.30